TimeCST,TemperatureF,Dew PointF,Humidity,Sea Level PressureIn,VisibilityMPH,Wind Direction,Wind SpeedMPH,Gust SpeedMPH,PrecipitationIn,Events,Conditions,WindDirDegrees,DateUTC
12:15 AM,37.4,37.4,100,29.69,2.0,NNE,3.5,-,0.08,Rain,Heavy Rain,20,2013-01-29 06:15:00
12:27 AM,39.2,39.2,100,29.66,3.0,Variable,5.8,-,0.11,Rain,Rain,0,2013-01-29 06:27:00
12:35 AM,39.2,37.4,93,29.68,4.0,North,4.6,-,0.11,Rain-Thunderstorm,Light Rain,360,2013-01-29 06:35:00
12:46 AM,37.4,37.4,100,29.69,2.5,NW,3.5,-,0.12,Rain,Light Rain,310,2013-01-29 06:46:00
12:53 AM,37.9,37.0,97,29.72,2.0,NW,3.5,-,0.13,Rain,Light Rain,320,2013-01-29 06:53:00
1:05 AM,37.4,35.6,93,29.68,1.5,East,4.6,-,0.04,Rain,Rain,80,2013-01-29 07:05:00
1:30 AM,37.4,37.4,100,29.65,1.8,NE,5.8,-,0.15,Rain,Rain,40,2013-01-29 07:30:00
1:38 AM,37.4,37.4,100,29.63,1.8,NE,4.6,-,0.17,Rain,Rain,50,2013-01-29 07:38:00
1:53 AM,37.9,37.0,97,29.65,2.0,NE,5.8,-,0.19,Rain,Rain,40,2013-01-29 07:53:00
2:23 AM,39.2,37.4,93,29.62,2.5,NNE,5.8,-,0.02,Rain,Rain,30,2013-01-29 08:23:00
2:45 AM,39.2,37.4,93,29.61,3.0,NNE,5.8,-,0.02,,Overcast,30,2013-01-29 08:45:00
2:53 AM,39.0,37.9,96,29.63,3.0,ENE,4.6,-,0.02,Rain,Light Rain,60,2013-01-29 08:53:00
3:02 AM,39.2,37.4,93,29.61,2.5,North,6.9,-,0.02,Rain,Light Rain,10,2013-01-29 09:02:00
3:14 AM,39.2,37.4,93,29.60,3.0,East,4.6,-,0.03,Rain,Light Rain,90,2013-01-29 09:14:00
3:30 AM,39.2,37.4,93,29.59,3.0,NE,6.9,-,0.03,,Overcast,40,2013-01-29 09:30:00
3:53 AM,39.9,39.0,97,29.60,3.0,ENE,4.6,-,0.03,,Overcast,60,2013-01-29 09:53:00
4:24 AM,39.2,39.2,100,29.55,2.0,NNE,4.6,-,0.01,Rain,Light Rain,20,2013-01-29 10:24:00
4:29 AM,39.2,39.2,100,29.57,2.5,NNW,5.8,-,0.01,Rain-Thunderstorm,Light Rain,340,2013-01-29 10:29:00
4:36 AM,39.2,39.2,100,29.57,1.8,ESE,4.6,-,0.04,Rain-Thunderstorm,Heavy Thunderstorms and Rain,120,2013-01-29 10:36:00
4:53 AM,39.9,39.0,97,29.56,2.5,NE,4.6,-,0.06,Rain,Light Rain,40,2013-01-29 10:53:00
5:05 AM,39.2,39.2,100,29.53,3.0,NNE,5.8,-,0.00,,Overcast,30,2013-01-29 11:05:00
5:11 AM,39.2,39.2,100,29.54,1.8,North,3.5,-,0.00,,Overcast,10,2013-01-29 11:11:00
5:36 AM,39.2,39.2,100,29.55,1.8,East,5.8,-,0.01,Rain,Rain,100,2013-01-29 11:36:00
5:53 AM,41.0,39.9,96,29.55,1.5,NE,4.6,-,0.06,Rain,Light Rain,50,2013-01-29 11:53:00
6:01 AM,41.0,39.2,93,29.53,1.8,NE,4.6,-,0.02,Rain,Light Rain,40,2013-01-29 12:01:00
6:08 AM,41.0,39.2,93,29.53,2.0,Calm,Calm,-,0.04,Rain,Rain,0,2013-01-29 12:08:00
6:19 AM,41.0,41.0,100,29.53,1.8,North,3.5,-,0.05,Rain,Light Rain,10,2013-01-29 12:19:00
6:24 AM,42.8,42.8,100,29.53,2.0,North,3.5,-,0.05,Rain,Light Rain,10,2013-01-29 12:24:00
6:27 AM,42.8,42.8,100,29.53,2.5,North,3.5,-,0.05,Rain,Light Rain,360,2013-01-29 12:27:00
6:33 AM,42.8,42.8,100,29.52,3.0,Calm,Calm,-,0.05,,Overcast,0,2013-01-29 12:33:00
6:40 AM,42.8,41.0,93,29.52,1.8,East,4.6,-,0.05,,Overcast,100,2013-01-29 12:40:00
6:53 AM,42.1,41.0,96,29.54,1.2,North,3.5,-,0.05,,Overcast,10,2013-01-29 12:53:00
7:01 AM,41.0,41.0,100,29.53,1.0,Calm,Calm,-,N/A,,Overcast,0,2013-01-29 13:01:00
7:06 AM,42.8,41.0,93,29.53,2.0,Calm,Calm,-,N/A,,Overcast,0,2013-01-29 13:06:00
7:24 AM,39.2,39.2,100,29.53,1.0,Calm,Calm,-,N/A,,Overcast,0,2013-01-29 13:24:00
7:35 AM,39.2,39.2,100,29.53,0.5,Calm,Calm,-,N/A,Fog,Fog,0,2013-01-29 13:35:00
7:46 AM,41.0,39.2,93,29.54,1.2,Calm,Calm,-,N/A,,Overcast,0,2013-01-29 13:46:00
7:53 AM,41.0,41.0,100,29.55,1.0,Calm,Calm,-,N/A,,Overcast,0,2013-01-29 13:53:00
8:08 AM,41.0,41.0,100,29.53,1.5,Calm,Calm,-,N/A,,Overcast,0,2013-01-29 14:08:00
8:23 AM,41.0,39.2,93,29.53,0.8,Calm,Calm,-,N/A,,Overcast,0,2013-01-29 14:23:00
8:42 AM,41.0,39.2,93,29.53,0.8,Calm,Calm,-,N/A,,Overcast,0,2013-01-29 14:42:00
8:53 AM,42.1,41.0,96,29.54,0.5,Calm,Calm,-,N/A,Fog,Fog,0,2013-01-29 14:53:00
8:59 AM,42.8,41.0,93,29.52,1.2,Calm,Calm,-,N/A,,Overcast,0,2013-01-29 14:59:00
9:10 AM,42.8,41.0,93,29.51,0.8,Calm,Calm,-,N/A,,Overcast,0,2013-01-29 15:10:00
9:41 AM,44.6,42.8,93,29.52,1.0,South,3.5,-,N/A,,Overcast,190,2013-01-29 15:41:00
9:48 AM,44.6,42.8,93,29.52,1.2,Calm,Calm,-,N/A,,Overcast,0,2013-01-29 15:48:00
9:53 AM,45.0,44.1,97,29.55,1.2,SW,3.5,-,N/A,,Overcast,230,2013-01-29 15:53:00
10:23 AM,50.0,48.2,94,29.56,1.0,SW,11.5,-,N/A,,Overcast,230,2013-01-29 16:23:00
10:26 AM,50.0,48.2,94,29.56,0.8,WSW,10.4,-,N/A,,Overcast,240,2013-01-29 16:26:00
10:39 AM,48.2,48.2,100,29.57,1.2,West,8.1,16.1,N/A,,Overcast,270,2013-01-29 16:39:00
10:53 AM,48.0,46.9,96,29.59,1.2,West,6.9,18.4,N/A,,Overcast,270,2013-01-29 16:53:00
11:04 AM,48.2,46.4,93,29.56,3.0,WSW,5.8,-,N/A,,Overcast,240,2013-01-29 17:04:00
11:17 AM,48.2,46.4,93,29.57,5.0,SW,6.9,-,N/A,,Overcast,230,2013-01-29 17:17:00
11:28 AM,48.2,46.4,93,29.57,5.0,WSW,4.6,-,N/A,,Overcast,240,2013-01-29 17:28:00
11:53 AM,46.9,45.0,93,29.58,5.0,SSW,3.5,-,N/A,,Overcast,210,2013-01-29 17:53:00
12:41 PM,46.4,42.8,87,29.55,9.0,West,6.9,-,N/A,,Overcast,280,2013-01-29 18:41:00
12:53 PM,45.0,42.1,90,29.58,9.0,WNW,9.2,-,N/A,,Overcast,300,2013-01-29 18:53:00
1:53 PM,42.1,39.0,89,29.58,6.0,WNW,6.9,-,0.00,Rain,Light Rain,290,2013-01-29 19:53:00
2:53 PM,41.0,37.9,89,29.58,4.0,NNW,5.8,-,0.01,Rain,Light Rain,330,2013-01-29 20:53:00
3:17 PM,39.2,37.4,93,29.57,7.0,NNW,4.6,-,0.00,,Overcast,330,2013-01-29 21:17:00
3:33 PM,39.2,37.4,93,29.55,7.0,North,4.6,-,0.00,,Overcast,350,2013-01-29 21:33:00
3:53 PM,39.0,36.0,89,29.55,9.0,NNE,5.8,-,0.00,,Overcast,20,2013-01-29 21:53:00
4:53 PM,37.9,35.1,89,29.57,6.0,NNE,4.6,-,N/A,,Overcast,20,2013-01-29 22:53:00
5:00 PM,37.4,35.6,93,29.54,6.0,North,5.8,-,N/A,,Overcast,10,2013-01-29 23:00:00
5:53 PM,37.0,34.0,89,29.59,7.0,NNW,5.8,-,N/A,,Overcast,340,2013-01-29 23:53:00
6:24 PM,37.4,33.8,87,29.56,6.0,North,5.8,-,N/A,,Overcast,360,2013-01-30 00:24:00
6:53 PM,37.0,34.0,89,29.58,8.0,NNE,4.6,-,N/A,,Overcast,20,2013-01-30 00:53:00
7:53 PM,36.0,33.1,89,29.58,10.0,North,6.9,-,N/A,,Overcast,10,2013-01-30 01:53:00
8:53 PM,35.1,33.1,92,29.56,6.0,NNE,5.8,-,0.02,Rain,Light Rain,20,2013-01-30 02:53:00
9:53 PM,35.1,33.1,92,29.57,8.0,North,5.8,-,0.01,Rain,Light Rain,10,2013-01-30 03:53:00
10:53 PM,36.0,33.1,89,29.59,9.0,North,4.6,-,0.01,Rain,Light Rain,350,2013-01-30 04:53:00
11:05 PM,35.6,33.8,93,29.57,6.0,North,4.6,-,0.00,Rain,Light Rain,360,2013-01-30 05:05:00
11:34 PM,33.8,32.0,93,29.54,2.5,NNE,5.8,-,0.01,Snow,Light Snow,30,2013-01-30 05:34:00
11:53 PM,34.0,33.1,96,29.59,3.0,NNW,3.5,-,0.02,Snow,Light Snow,340,2013-01-30 05:53:00